Location: Unspecified
(35.7250°N, 0.0000°E)
Time: 04:33:01
(UTC+00:00)

Explorer 7 - Pass Details

Date: 18 June 2019
Orbit: 485 x 680 km, 50.3° (Epoch: 19 July)

Event Time Altitude Azimuth Distance (km) Brightness Sun altitude
Rises 16:43:22 0° 308° (NW) 3,022 11.5 28.7°
Reaches altitude 10° 16:45:44 10° 307° (NW) 2,114 11.0 28.2°
Maximum altitude 16:50:38 77° 222° (SW) 699 7.9 27.2°
Drops below altitude 10° 16:55:29 10° 137° (SE) 2,088 9.4 26.3°
Sets 16:57:49 0° 136° (SE) 2,982 10.1 25.8°
